| time (UTC) | temp C | wind direction | speed KPH | gust KPH | rain 1hr cm | rain 24hr cm | rain mn cm | humidity % | barometer mb |
| 20260510172514 | 33 | 247 | 0.0 | 6.4 | 0.00 | 0.30 | 0.00 | 59 | 1014.9 |
| 20260510172021 | 33 | 250 | 1.6 | 8.0 | 0.00 | 0.30 | 0.00 | 58 | 1015.0 |
| 20260510171531 | 33 | 200 | 0.0 | 8.0 | 0.00 | 0.30 | 0.00 | 61 | 1015.1 |
| 20260510171013 | 33 | 257 | 1.6 | 6.4 | 0.00 | 0.30 | 0.00 | 62 | 1015.2 |
| 20260510170514 | 33 | 236 | 0.0 | 3.2 | 0.00 | 0.30 | 0.00 | 66 | 1015.2 |
| 20260510170036 | 33 | 172 | 0.0 | 3.2 | 0.00 | 0.30 | 0.00 | 64 | 1015.2 |
| 20260510165513 | 32 | 0 | 0.0 | 3.2 | 0.00 | 0.30 | 0.00 | 69 | 1015.2 |
| 20260510165013 | 32 | 245 | 0.0 | 6.4 | 0.00 | 0.30 | 0.00 | 68 | 1015.4 |
| 20260510164547 | 32 | 225 | 1.6 | 6.4 | 0.00 | 0.30 | 0.00 | 66 | 1015.5 |
| 20260510164014 | 32 | 159 | 1.6 | 4.8 | 0.00 | 0.30 | 0.00 | 68 | 1015.6 |
| 20260510163514 | 32 | 0 | 1.6 | 3.2 | 0.00 | 0.30 | 0.00 | 67 | 1015.7 |
| 20260510163030 | 32 | 0 | 0.0 | 3.2 | 0.00 | 0.30 | 0.00 | 71 | 1015.8 |
| 20260510162515 | 31 | 0 | 0.0 | 3.2 | 0.00 | 0.30 | 0.00 | 70 | 1015.8 |
| 20260510162015 | 31 | 0 | 0.0 | 0.0 | 0.00 | 0.30 | 0.00 | 73 | 1015.8 |
| 20260510161542 | 31 | 0 | 0.0 | 0.0 | 0.00 | 0.30 | 0.00 | 74 | 1015.9 |
| 20260510161015 | 31 | 0 | 0.0 | 3.2 | 0.00 | 0.30 | 0.00 | 71 | 1015.8 |
| 20260510160513 | 31 | 0 | 0.0 | 3.2 | 0.00 | 0.30 | 0.00 | 75 | 1015.9 |
| 20260510160039 | 31 | 0 | 0.0 | 3.2 | 0.00 | 0.30 | 0.00 | 72 | 1015.9 |
| 20260510155514 | 31 | 297 | 1.6 | 3.2 | 0.00 | 0.30 | 0.00 | 71 | 1015.9 |
| 20260510155014 | 31 | 205 | 0.0 | 3.2 | 0.00 | 0.30 | 0.00 | 75 | 1015.8 |
| 20260510154532 | 31 | 0 | 0.0 | 1.6 | 0.00 | 0.30 | 0.00 | 75 | 1015.8 |
| 20260510154014 | 30 | 0 | 0.0 | 0.0 | 0.00 | 0.30 | 0.00 | 76 | 1015.9 |
| 20260510153512 | 30 | 0 | 0.0 | 0.0 | 0.00 | 0.30 | 0.00 | 75 | 1015.9 |
| 20260510153032 | 30 | 0 | 0.0 | 0.0 | 0.00 | 0.30 | 0.00 | 77 | 1016.0 |
| 20260510152515 | 30 | 0 | 0.0 | 1.6 | 0.00 | 0.30 | 0.00 | 80 | 1016.0 |
| 20260510152017 | 30 | 0 | 0.0 | 4.8 | 0.00 | 0.30 | 0.00 | 79 | 1015.9 |
| 20260510151530 | 30 | 289 | 0.0 | 4.8 | 0.00 | 0.30 | 0.00 | 80 | 1015.9 |
| 20260510151011 | 29 | 217 | 1.6 | 4.8 | 0.00 | 0.30 | 0.00 | 79 | 1015.8 |
| 20260510150515 | 29 | 0 | 0.0 | 3.2 | 0.00 | 0.30 | 0.00 | 78 | 1015.7 |
| 20260510150030 | 29 | 182 | 0.0 | 4.8 | 0.00 | 0.30 | 0.00 | 79 | 1015.7 |
| 20260510145514 | 29 | 231 | 0.0 | 4.8 | 0.00 | 0.30 | 0.00 | 82 | 1015.7 |
| 20260510145014 | 29 | 231 | 0.0 | 3.2 | 0.00 | 0.30 | 0.00 | 80 | 1015.6 |
| 20260510144532 | 29 | 124 | 0.0 | 3.2 | 0.00 | 0.30 | 0.00 | 82 | 1015.5 |
| 20260510144013 | 28 | 0 | 0.0 | 1.6 | 0.00 | 0.30 | 0.00 | 84 | 1015.6 |
| 20260510143516 | 28 | 0 | 0.0 | 1.6 | 0.00 | 0.30 | 0.00 | 84 | 1015.6 |
| 20260510143039 | 28 | 0 | 0.0 | 3.2 | 0.00 | 0.30 | 0.00 | 85 | 1015.6 |
| 20260510142516 | 28 | 0 | 0.0 | 3.2 | 0.00 | 0.30 | 0.00 | 86 | 1015.6 |
| 20260510142018 | 27 | 0 | 0.0 | 1.6 | 0.00 | 0.30 | 0.00 | 87 | 1015.6 |
| 20260510141535 | 27 | 213 | 0.0 | 3.2 | 0.00 | 0.30 | 0.00 | 87 | 1015.6 |
| 20260510141017 | 27 | 0 | 0.0 | 3.2 | 0.00 | 0.30 | 0.00 | 90 | 1015.5 |
| 20260510140517 | 27 | 0 | 0.0 | 1.6 | 0.00 | 0.30 | 0.00 | 91 | 1015.4 |
| 20260510140039 | 26 | 0 | 0.0 | 1.6 | 0.00 | 0.30 | 0.00 | 92 | 1015.4 |
| 20260510135516 | 26 | 0 | 0.0 | 1.6 | 0.00 | 0.30 | 0.00 | 94 | 1015.3 |
| 20260510135017 | 26 | 0 | 0.0 | 1.6 | 0.00 | 0.30 | 0.00 | 97 | 1015.3 |
| 20260510134534 | 25 | 0 | 0.0 | 1.6 | 0.00 | 0.30 | 0.00 | 98 | 1015.3 |
| 20260510134017 | 25 | 0 | 0.0 | 1.6 | 0.00 | 0.30 | 0.00 | 99 | 1015.2 |
| 20260510133515 | 25 | 0 | 0.0 | 0.0 | 0.00 | 0.30 | 0.00 | 100 | 1015.2 |
| 20260510133033 | 25 | 0 | 0.0 | 1.6 | 0.00 | 0.30 | 0.00 | 100 | 1015.1 |
| 20260510132514 | 24 | 0 | 0.0 | 1.6 | 0.00 | 0.30 | 0.00 | 100 | 1015.2 |
| 20260510132018 | 24 | 0 | 0.0 | 1.6 | 0.00 | 0.30 | 0.00 | 100 | 1015.2 |
| 20260510131533 | 24 | 0 | 0.0 | 1.6 | 0.00 | 0.30 | 0.00 | 100 | 1015.1 |
| 20260510131013 | 23 | 0 | 0.0 | 1.6 | 0.00 | 0.30 | 0.00 | 100 | 1015.1 |
| 20260510130515 | 23 | 0 | 0.0 | 1.6 | 0.00 | 0.30 | 0.00 | 100 | 1015.0 |
| 20260510130034 | 23 | 0 | 0.0 | 1.6 | 0.00 | 0.30 | 0.00 | 100 | 1015.1 |
| 20260510125513 | 23 | 0 | 0.0 | 0.0 | 0.00 | 0.30 | 0.00 | 100 | 1015.1 |
| 20260510125016 | 23 | 0 | 0.0 | 0.0 | 0.00 | 0.30 | 0.00 | 100 | 1015.0 |
| 20260510124556 | 23 | 0 | 0.0 | 0.0 | 0.00 | 0.30 | 0.00 | 100 | 1015.0 |
| 20260510124016 | 23 | 0 | 0.0 | 1.6 | 0.00 | 0.30 | 0.00 | 100 | 1015.1 |
| 20260510123514 | 23 | 0 | 0.0 | 1.6 | 0.00 | 0.30 | 0.00 | 100 | 1014.9 |
| 20260510123035 | 23 | 0 | 0.0 | 0.0 | 0.00 | 0.30 | 0.00 | 100 | 1014.8 |
| 20260510122517 | 22 | 0 | 0.0 | 0.0 | 0.00 | 0.30 | 0.00 | 100 | 1014.7 |
| 20260510122016 | 22 | 0 | 0.0 | 0.0 | 0.00 | 0.30 | 0.00 | 100 | 1014.7 |
| 20260510121532 | 22 | 0 | 0.0 | 0.0 | 0.00 | 0.30 | 0.00 | 100 | 1014.6 |
| 20260510121016 | 22 | 0 | 0.0 | 0.0 | 0.00 | 0.30 | 0.00 | 100 | 1014.5 |
| 20260510120514 | 22 | 0 | 0.0 | 0.0 | 0.00 | 0.30 | 0.00 | 100 | 1014.5 |
| 20260510120034 | 22 | 0 | 0.0 | 0.0 | 0.00 | 0.30 | 0.00 | 100 | 1014.5 |
| 20260510115516 | 22 | 0 | 0.0 | 0.0 | 0.00 | 0.30 | 0.00 | 100 | 1014.3 |
| 20260510115016 | 21 | 0 | 0.0 | 0.0 | 0.00 | 0.30 | 0.00 | 100 | 1014.3 |
| 20260510114533 | 21 | 0 | 0.0 | 0.0 | 0.00 | 0.30 | 0.00 | 100 | 1014.3 |
| 20260510114020 | 21 | 0 | 0.0 | 0.0 | 0.00 | 0.30 | 0.00 | 100 | 1014.1 |
| 20260510113517 | 21 | 0 | 0.0 | 0.0 | 0.00 | 0.30 | 0.00 | 100 | 1014.0 |
| 20260510113037 | 21 | 0 | 0.0 | 0.0 | 0.00 | 0.30 | 0.00 | 100 | 1013.9 |
| 20260510112521 | 21 | 0 | 0.0 | 0.0 | 0.00 | 0.30 | 0.00 | 100 | 1013.8 |
| 20260510112018 | 21 | 0 | 0.0 | 0.0 | 0.00 | 0.30 | 0.00 | 100 | 1013.7 |
| 20260510111554 | 21 | 0 | 0.0 | 0.0 | 0.00 | 0.30 | 0.00 | 100 | 1013.8 |
| 20260510111014 | 21 | 0 | 0.0 | 0.0 | 0.00 | 0.30 | 0.00 | 100 | 1013.8 |
| 20260510110516 | 21 | 0 | 0.0 | 0.0 | 0.00 | 0.30 | 0.00 | 100 | 1013.7 |
| 20260510110031 | 21 | 0 | 0.0 | 0.0 | 0.00 | 0.30 | 0.00 | 100 | 1013.6 |
| 20260510105514 | 21 | 0 | 0.0 | 0.0 | 0.00 | 0.30 | 0.00 | 100 | 1013.6 |
| 20260510105016 | 21 | 0 | 0.0 | 0.0 | 0.00 | 0.30 | 0.00 | 100 | 1013.5 |
| 20260510104540 | 21 | 0 | 0.0 | 0.0 | 0.00 | 0.30 | 0.00 | 100 | 1013.4 |
| 20260510104015 | 21 | 0 | 0.0 | 0.0 | 0.00 | 0.30 | 0.00 | 100 | 1013.4 |
| 20260510103512 | 21 | 0 | 0.0 | 0.0 | 0.00 | 0.30 | 0.00 | 100 | 1013.4 |
| 20260510103035 | 21 | 0 | 0.0 | 0.0 | 0.00 | 0.30 | 0.00 | 100 | 1013.2 |
| 20260510102515 | 21 | 0 | 0.0 | 0.0 | 0.00 | 0.30 | 0.00 | 100 | 1013.0 |
| 20260510102015 | 21 | 0 | 0.0 | 0.0 | 0.00 | 0.30 | 0.00 | 100 | 1013.0 |
| 20260510101531 | 21 | 0 | 0.0 | 0.0 | 0.00 | 0.30 | 0.00 | 100 | 1013.0 |
| 20260510101014 | 21 | 0 | 0.0 | 0.0 | 0.00 | 0.30 | 0.00 | 100 | 1012.9 |
| 20260510100521 | 21 | 0 | 0.0 | 0.0 | 0.00 | 0.30 | 0.00 | 100 | 1012.9 |
| 20260510100034 | 21 | 0 | 0.0 | 0.0 | 0.00 | 0.30 | 0.00 | 100 | 1012.9 |
| 20260510095513 | 21 | 0 | 0.0 | 0.0 | 0.00 | 0.30 | 0.00 | 100 | 1012.9 |
| 20260510095014 | 21 | 0 | 0.0 | 0.0 | 0.00 | 0.30 | 0.00 | 100 | 1012.9 |
| 20260510094531 | 21 | 0 | 0.0 | 0.0 | 0.00 | 0.30 | 0.00 | 100 | 1012.8 |
| 20260510094013 | 21 | 0 | 0.0 | 0.0 | 0.00 | 0.30 | 0.00 | 100 | 1012.7 |
| 20260510093512 | 21 | 0 | 0.0 | 0.0 | 0.00 | 0.30 | 0.00 | 100 | 1012.6 |
| 20260510093030 | 21 | 0 | 0.0 | 0.0 | 0.00 | 0.30 | 0.00 | 100 | 1012.5 |
| 20260510092514 | 21 | 0 | 0.0 | 0.0 | 0.00 | 0.30 | 0.00 | 100 | 1012.6 |
| 20260510092016 | 21 | 0 | 0.0 | 0.0 | 0.00 | 0.30 | 0.00 | 100 | 1012.6 |
| 20260510091548 | 21 | 0 | 0.0 | 0.0 | 0.00 | 0.30 | 0.00 | 100 | 1012.5 |
| 20260510091013 | 21 | 0 | 0.0 | 0.0 | 0.00 | 0.30 | 0.00 | 100 | 1012.4 |
| 20260510090514 | 21 | 0 | 0.0 | 0.0 | 0.00 | 0.30 | 0.00 | 100 | 1012.3 |
| 20260510090034 | 21 | 0 | 0.0 | 0.0 | 0.00 | 0.30 | 0.00 | 100 | 1012.3 |
| 20260510085515 | 21 | 0 | 0.0 | 0.0 | 0.00 | 0.30 | 0.00 | 100 | 1012.2 |
| 20260510085013 | 21 | 0 | 0.0 | 0.0 | 0.00 | 0.30 | 0.00 | 100 | 1012.2 |
| 20260510084539 | 21 | 0 | 0.0 | 0.0 | 0.00 | 0.30 | 0.00 | 100 | 1012.2 |
| 20260510084012 | 21 | 0 | 0.0 | 0.0 | 0.00 | 0.30 | 0.00 | 100 | 1012.1 |
| 20260510083520 | 21 | 0 | 0.0 | 0.0 | 0.00 | 0.30 | 0.00 | 100 | 1012.0 |
| 20260510083031 | 21 | 0 | 0.0 | 0.0 | 0.00 | 0.30 | 0.00 | 100 | 1011.9 |
| 20260510082514 | 21 | 0 | 0.0 | 0.0 | 0.00 | 0.30 | 0.00 | 100 | 1012.0 |
| 20260510082012 | 21 | 0 | 0.0 | 0.0 | 0.00 | 0.30 | 0.00 | 100 | 1012.2 |
| 20260510081538 | 21 | 0 | 0.0 | 0.0 | 0.00 | 0.30 | 0.00 | 100 | 1012.2 |
| 20260510081014 | 20 | 0 | 0.0 | 0.0 | 0.00 | 0.30 | 0.00 | 100 | 1012.2 |
| 20260510080512 | 20 | 0 | 0.0 | 0.0 | 0.00 | 0.30 | 0.00 | 100 | 1012.3 |
| 20260510080037 | 20 | 0 | 0.0 | 0.0 | 0.00 | 0.30 | 0.00 | 100 | 1012.3 |
| 20260510075516 | 20 | 0 | 0.0 | 0.0 | 0.00 | 0.30 | 0.00 | 100 | 1012.2 |
| 20260510075014 | 20 | 0 | 0.0 | 0.0 | 0.00 | 0.30 | 0.00 | 100 | 1012.2 |
| 20260510074534 | 20 | 0 | 0.0 | 0.0 | 0.00 | 0.30 | 0.00 | 100 | 1012.2 |
| 20260510074018 | 20 | 0 | 0.0 | 0.0 | 0.00 | 0.30 | 0.00 | 100 | 1012.2 |
| 20260510073522 | 20 | 0 | 0.0 | 0.0 | 0.00 | 0.30 | 0.00 | 100 | 1012.3 |
| 20260510073038 | 20 | 0 | 0.0 | 0.0 | 0.00 | 0.30 | 0.00 | 100 | 1012.3 |
| 20260510072514 | 20 | 0 | 0.0 | 0.0 | 0.00 | 0.30 | 0.00 | 100 | 1012.3 |
| 20260510072015 | 20 | 0 | 0.0 | 0.0 | 0.00 | 0.30 | 0.00 | 100 | 1012.4 |
| 20260510071537 | 20 | 0 | 0.0 | 0.0 | 0.00 | 0.30 | 0.00 | 100 | 1012.4 |
| 20260510071013 | 20 | 0 | 0.0 | 0.0 | 0.00 | 0.30 | 0.00 | 100 | 1012.5 |
| 20260510070513 | 20 | 0 | 0.0 | 0.0 | 0.00 | 0.30 | 0.00 | 100 | 1012.5 |
| 20260510070043 | 20 | 0 | 0.0 | 0.0 | 0.00 | 0.30 | 0.00 | 100 | 1012.6 |
| 20260510065515 | 20 | 0 | 0.0 | 0.0 | 0.00 | 0.30 | 0.00 | 100 | 1012.6 |
| 20260510065016 | 20 | 0 | 0.0 | 0.0 | 0.00 | 0.30 | 0.00 | 100 | 1012.7 |
| 20260510064554 | 21 | 0 | 0.0 | 0.0 | 0.00 | 0.30 | 0.00 | 100 | 1012.6 |
| 20260510064012 | 21 | 0 | 0.0 | 0.0 | 0.00 | 0.30 | 0.00 | 100 | 1012.6 |
| 20260510063515 | 21 | 0 | 0.0 | 0.0 | 0.00 | 0.30 | 0.00 | 100 | 1012.8 |
| 20260510063043 | 21 | 0 | 0.0 | 0.0 | 0.00 | 0.30 | 0.00 | 100 | 1012.9 |
| 20260510062516 | 21 | 0 | 0.0 | 0.0 | 0.00 | 0.30 | 0.00 | 100 | 1012.9 |
| 20260510062015 | 21 | 0 | 0.0 | 0.0 | 0.00 | 0.30 | 0.00 | 100 | 1013.1 |
| 20260510061544 | 21 | 0 | 0.0 | 0.0 | 0.00 | 0.30 | 0.00 | 100 | 1013.1 |
| 20260510061015 | 21 | 0 | 0.0 | 0.0 | 0.00 | 0.30 | 0.00 | 100 | 1013.1 |
| 20260510060515 | 21 | 0 | 0.0 | 0.0 | 0.00 | 0.30 | 0.00 | 100 | 1013.4 |
| 20260510060039 | 21 | 0 | 0.0 | 0.0 | 0.00 | 0.30 | 0.00 | 100 | 1013.4 |
| 20260510055514 | 21 | 0 | 0.0 | 0.0 | 0.00 | 0.30 | 0.00 | 100 | 1013.4 |
| 20260510055015 | 21 | 0 | 0.0 | 0.0 | 0.00 | 0.30 | 0.00 | 100 | 1013.4 |
| 20260510054533 | 21 | 0 | 0.0 | 0.0 | 0.00 | 0.30 | 0.00 | 100 | 1013.4 |
| 20260510054013 | 21 | 0 | 0.0 | 0.0 | 0.00 | 0.30 | 0.00 | 100 | 1013.6 |
| 20260510053516 | 21 | 0 | 0.0 | 0.0 | 0.00 | 0.30 | 0.00 | 100 | 1013.6 |
| 20260510053031 | 21 | 0 | 0.0 | 0.0 | 0.00 | 0.30 | 0.00 | 100 | 1013.6 |
| 20260510052517 | 21 | 0 | 0.0 | 0.0 | 0.00 | 0.30 | 0.00 | 100 | 1013.7 |
| 20260510052017 | 21 | 0 | 0.0 | 0.0 | 0.00 | 0.30 | 0.00 | 100 | 1013.8 |
| 20260510051532 | 21 | 0 | 0.0 | 0.0 | 0.00 | 0.30 | 0.00 | 100 | 1013.8 |
| 20260510051015 | 21 | 0 | 0.0 | 0.0 | 0.00 | 0.30 | 0.00 | 100 | 1013.9 |
| 20260510050513 | 21 | 0 | 0.0 | 0.0 | 0.00 | 0.30 | 0.00 | 100 | 1013.9 |
| 20260510050032 | 21 | 0 | 0.0 | 0.0 | 0.00 | 0.30 | 0.00 | 100 | 1014.0 |
| 20260510045515 | 21 | 0 | 0.0 | 0.0 | 0.00 | 0.30 | 0.00 | 100 | 1014.0 |
| 20260510045020 | 21 | 0 | 0.0 | 0.0 | 0.00 | 0.30 | 0.00 | 100 | 1014.0 |
| 20260510044536 | 21 | 0 | 0.0 | 0.0 | 0.00 | 0.30 | 0.00 | 100 | 1014.0 |
| 20260510044012 | 21 | 0 | 0.0 | 0.0 | 0.00 | 0.30 | 0.00 | 100 | 1014.0 |
| 20260510043512 | 21 | 0 | 0.0 | 0.0 | 0.00 | 0.30 | 0.00 | 100 | 1014.0 |
| 20260510043034 | 21 | 0 | 0.0 | 0.0 | 0.00 | 0.30 | 0.00 | 100 | 1014.0 |
| 20260510042512 | 21 | 0 | 0.0 | 0.0 | 0.00 | 0.30 | 0.00 | 100 | 1014.1 |
| 20260510042012 | 21 | 0 | 0.0 | 0.0 | 0.00 | 0.30 | 0.00 | 100 | 1014.2 |
| 20260510041537 | 21 | 0 | 0.0 | 0.0 | 0.00 | 0.30 | 0.00 | 100 | 1014.0 |
| 20260510041012 | 21 | 0 | 0.0 | 0.0 | 0.00 | 0.30 | 0.00 | 100 | 1014.0 |
| 20260510040512 | 21 | 0 | 0.0 | 0.0 | 0.00 | 0.30 | 0.00 | 100 | 1014.1 |
| 20260510040030 | 21 | 0 | 0.0 | 0.0 | 0.00 | 0.30 | 0.00 | 100 | 1014.0 |
| 20260510035513 | 21 | 0 | 0.0 | 0.0 | 0.00 | 0.30 | 0.30 | 100 | 1014.1 |
| 20260510035013 | 21 | 0 | 0.0 | 0.0 | 0.00 | 0.30 | 0.30 | 100 | 1014.2 |
| 20260510034532 | 21 | 0 | 0.0 | 0.0 | 0.00 | 0.30 | 0.30 | 100 | 1014.0 |
| 20260510034014 | 21 | 0 | 0.0 | 0.0 | 0.00 | 0.30 | 0.30 | 100 | 1014.0 |
| 20260510033515 | 21 | 0 | 0.0 | 0.0 | 0.00 | 0.30 | 0.30 | 100 | 1013.9 |
| 20260510033033 | 21 | 0 | 0.0 | 0.0 | 0.00 | 0.30 | 0.30 | 100 | 1013.9 |
| 20260510032512 | 21 | 0 | 0.0 | 0.0 | 0.00 | 0.30 | 0.30 | 100 | 1013.9 |
| 20260510032016 | 21 | 0 | 0.0 | 0.0 | 0.00 | 0.30 | 0.30 | 100 | 1013.9 |
| 20260510031536 | 21 | 0 | 0.0 | 0.0 | 0.00 | 0.30 | 0.30 | 100 | 1013.8 |
| 20260510031015 | 21 | 0 | 0.0 | 0.0 | 0.00 | 0.30 | 0.30 | 100 | 1013.9 |
| 20260510030514 | 22 | 0 | 0.0 | 0.0 | 0.00 | 0.30 | 0.30 | 100 | 1014.0 |
| 20260510030031 | 21 | 0 | 0.0 | 0.0 | 0.00 | 0.30 | 0.30 | 100 | 1013.9 |
| 20260510025513 | 22 | 0 | 0.0 | 0.0 | 0.00 | 0.30 | 0.30 | 100 | 1014.0 |
| 20260510025015 | 22 | 0 | 0.0 | 0.0 | 0.00 | 0.30 | 0.30 | 100 | 1013.9 |
| 20260510024539 | 22 | 0 | 0.0 | 0.0 | 0.00 | 0.30 | 0.30 | 100 | 1013.9 |
| 20260510024014 | 21 | 0 | 0.0 | 0.0 | 0.00 | 0.30 | 0.30 | 100 | 1013.8 |
| 20260510023514 | 22 | 0 | 0.0 | 0.0 | 0.00 | 0.30 | 0.30 | 100 | 1013.8 |
| 20260510023030 | 21 | 0 | 0.0 | 0.0 | 0.00 | 0.30 | 0.30 | 100 | 1013.8 |
| 20260510022514 | 22 | 0 | 0.0 | 0.0 | 0.00 | 0.30 | 0.30 | 100 | 1013.7 |
| 20260510022016 | 21 | 0 | 0.0 | 0.0 | 0.00 | 0.30 | 0.30 | 100 | 1013.7 |
| 20260510021529 | 21 | 0 | 0.0 | 0.0 | 0.00 | 0.30 | 0.30 | 100 | 1013.8 |
| 20260510021053 | 21 | 0 | 0.0 | 0.0 | 0.00 | 0.30 | 0.30 | 100 | 1013.8 |
| 20260510020515 | 22 | 0 | 0.0 | 0.0 | 0.00 | 0.30 | 0.30 | 100 | 1013.7 |
| 20260510020032 | 22 | 0 | 0.0 | 0.0 | 0.00 | 0.30 | 0.30 | 100 | 1013.7 |
| 20260510015518 | 22 | 0 | 0.0 | 0.0 | 0.00 | 0.30 | 0.30 | 100 | 1013.7 |
| 20260510015015 | 22 | 0 | 0.0 | 0.0 | 0.00 | 0.30 | 0.30 | 100 | 1013.5 |
| 20260510014539 | 22 | 0 | 0.0 | 0.0 | 0.00 | 0.30 | 0.30 | 100 | 1013.5 |
| 20260510014015 | 22 | 0 | 0.0 | 0.0 | 0.00 | 0.30 | 0.30 | 100 | 1013.5 |
| 20260510013520 | 22 | 0 | 0.0 | 0.0 | 0.00 | 0.30 | 0.30 | 100 | 1013.5 |
| 20260510013032 | 22 | 0 | 0.0 | 0.0 | 0.00 | 0.30 | 0.30 | 100 | 1013.4 |
| 20260510012515 | 22 | 0 | 0.0 | 0.0 | 0.00 | 0.30 | 0.30 | 100 | 1013.4 |
| 20260510012016 | 22 | 0 | 0.0 | 0.0 | 0.00 | 0.30 | 0.30 | 99 | 1013.5 |
| 20260510011535 | 22 | 0 | 0.0 | 0.0 | 0.00 | 0.30 | 0.30 | 99 | 1013.4 |
| 20260510011014 | 22 | 0 | 0.0 | 0.0 | 0.00 | 0.30 | 0.30 | 99 | 1013.3 |
| 20260510010514 | 22 | 0 | 0.0 | 0.0 | 0.00 | 0.30 | 0.30 | 99 | 1013.2 |
| 20260510010032 | 22 | 0 | 0.0 | 0.0 | 0.00 | 0.30 | 0.30 | 99 | 1013.2 |
| 20260510005517 | 22 | 0 | 0.0 | 0.0 | 0.00 | 0.30 | 0.30 | 99 | 1013.2 |
| 20260510005018 | 22 | 0 | 0.0 | 0.0 | 0.00 | 0.30 | 0.30 | 99 | 1013.2 |
| 20260510004536 | 22 | 0 | 0.0 | 0.0 | 0.00 | 0.30 | 0.30 | 99 | 1013.0 |
| 20260510004020 | 22 | 0 | 0.0 | 0.0 | 0.00 | 0.30 | 0.30 | 98 | 1013.0 |
| 20260510003525 | 22 | 0 | 0.0 | 0.0 | 0.00 | 0.30 | 0.30 | 98 | 1013.0 |
| 20260510003045 | 22 | 0 | 0.0 | 0.0 | 0.00 | 0.30 | 0.30 | 98 | 1013.0 |
| 20260510002515 | 22 | 0 | 0.0 | 0.0 | 0.00 | 0.30 | 0.30 | 98 | 1012.9 |
| 20260510002014 | 23 | 0 | 0.0 | 0.0 | 0.00 | 0.30 | 0.30 | 97 | 1012.7 |
| 20260510001531 | 23 | 0 | 0.0 | 0.0 | 0.00 | 0.30 | 0.30 | 97 | 1012.7 |
| 20260510001014 | 23 | 0 | 0.0 | 0.0 | 0.00 | 0.30 | 0.30 | 97 | 1012.6 |
| 20260510000516 | 23 | 0 | 0.0 | 1.6 | 0.00 | 0.30 | 0.30 | 96 | 1012.6 |
| 20260510000037 | 23 | 0 | 0.0 | 1.6 | 0.00 | 0.30 | 0.30 | 95 | 1012.5 |
| 20260509235516 | 23 | 0 | 0.0 | 1.6 | 0.00 | 0.33 | 0.30 | 95 | 1012.4 |
| 20260509235016 | 23 | 0 | 0.0 | 1.6 | 0.00 | 0.33 | 0.30 | 95 | 1012.4 |
| 20260509234555 | 23 | 0 | 0.0 | 1.6 | 0.00 | 0.33 | 0.30 | 96 | 1012.3 |
| 20260509234014 | 23 | 0 | 0.0 | 0.0 | 0.00 | 0.33 | 0.30 | 96 | 1012.2 |
| 20260509233516 | 23 | 0 | 0.0 | 0.0 | 0.00 | 0.33 | 0.30 | 96 | 1012.3 |
| 20260509233042 | 23 | 0 | 0.0 | 1.6 | 0.00 | 0.33 | 0.30 | 95 | 1012.3 |
| 20260509232517 | 23 | 169 | 0.0 | 1.6 | 0.00 | 0.33 | 0.30 | 95 | 1012.2 |
| 20260509232016 | 23 | 0 | 0.0 | 4.8 | 0.00 | 0.33 | 0.30 | 95 | 1012.2 |
| 20260509231545 | 23 | 0 | 0.0 | 4.8 | 0.00 | 0.33 | 0.30 | 96 | 1012.3 |
| 20260509231016 | 23 | 0 | 0.0 | 3.2 | 0.00 | 0.33 | 0.30 | 96 | 1012.2 |
| 20260509230513 | 23 | 0 | 0.0 | 3.2 | 0.00 | 0.33 | 0.30 | 96 | 1012.2 |
| 20260509230032 | 23 | 6 | 0.0 | 4.8 | 0.00 | 0.33 | 0.30 | 96 | 1012.0 |
| 20260509225512 | 23 | 0 | 0.0 | 4.8 | 0.00 | 0.33 | 0.30 | 96 | 1011.9 |
| 20260509225016 | 24 | 0 | 0.0 | 3.2 | 0.00 | 0.33 | 0.30 | 96 | 1011.8 |
| 20260509224533 | 24 | 351 | 0.0 | 3.2 | 0.00 | 0.33 | 0.30 | 96 | 1011.8 |
| 20260509224016 | 24 | 0 | 0.0 | 3.2 | 0.03 | 0.33 | 0.30 | 96 | 1011.9 |
| 20260509223515 | 24 | 18 | 0.0 | 3.2 | 0.03 | 0.33 | 0.30 | 96 | 1011.9 |
| 20260509223035 | 24 | 0 | 0.0 | 3.2 | 0.03 | 0.33 | 0.30 | 96 | 1012.0 |
| 20260509222514 | 24 | 29 | 0.0 | 3.2 | 0.03 | 0.33 | 0.30 | 96 | 1011.9 |
| 20260509222015 | 24 | 0 | 0.0 | 3.2 | 0.03 | 0.33 | 0.30 | 96 | 1011.9 |
| 20260509221531 | 24 | 0 | 0.0 | 1.6 | 0.03 | 0.33 | 0.30 | 96 | 1012.0 |
| 20260509221017 | 24 | 0 | 0.0 | 4.8 | 0.03 | 0.33 | 0.30 | 96 | 1011.8 |
| 20260509220516 | 24 | 8 | 1.6 | 4.8 | 0.03 | 0.33 | 0.30 | 95 | 1012.0 |
| 20260509220031 | 24 | 0 | 1.6 | 3.2 | 0.03 | 0.33 | 0.30 | 95 | 1012.0 |
| 20260509215514 | 24 | 0 | 0.0 | 3.2 | 0.03 | 0.33 | 0.30 | 95 | 1011.9 |
| 20260509215018 | 25 | 325 | 0.0 | 3.2 | 0.18 | 0.33 | 0.30 | 94 | 1011.8 |
| 20260509214533 | 25 | 0 | 0.0 | 3.2 | 0.18 | 0.30 | 0.28 | 93 | 1011.9 |
| 20260509214012 | 25 | 0 | 0.0 | 3.2 | 0.28 | 0.30 | 0.28 | 94 | 1011.9 |
| 20260509213524 | 25 | 0 | 0.0 | 3.2 | 0.28 | 0.30 | 0.28 | 94 | 1011.7 |
| 20260509213031 | 25 | 0 | 0.0 | 3.2 | 0.28 | 0.30 | 0.28 | 95 | 1011.6 |
| 20260509212513 | 25 | 314 | 0.0 | 3.2 | 0.28 | 0.30 | 0.28 | 94 | 1011.4 |
| 20260509212014 | 25 | 0 | 0.0 | 4.8 | 0.28 | 0.30 | 0.28 | 95 | 1011.5 |
| 20260509211534 | 25 | 0 | 0.0 | 4.8 | 0.28 | 0.30 | 0.28 | 95 | 1011.4 |
| 20260509211015 | 25 | 330 | 0.0 | 4.8 | 0.28 | 0.30 | 0.28 | 93 | 1011.4 |
| 20260509210516 | 25 | 3 | 0.0 | 3.2 | 0.28 | 0.30 | 0.28 | 95 | 1011.2 |
| 20260509210038 | 25 | 0 | 0.0 | 3.2 | 0.28 | 0.30 | 0.28 | 92 | 1011.0 |
| 20260509205514 | 26 | 0 | 0.0 | 1.6 | 0.25 | 0.28 | 0.25 | 91 | 1010.9 |
| 20260509205015 | 26 | 0 | 0.0 | 3.2 | 0.13 | 0.15 | 0.13 | 88 | 1011.3 |
| 20260509204535 | 27 | 214 | 0.0 | 6.4 | 0.10 | 0.13 | 0.10 | 84 | 1011.4 |
| 20260509204017 | 27 | 0 | 0.0 | 6.4 | 0.00 | 0.03 | 0.00 | 78 | 1011.0 |
| 20260509203514 | 27 | 355 | 0.0 | 9.7 | 0.00 | 0.03 | 0.00 | 75 | 1010.8 |
| 20260509203040 | 28 | 324 | 1.6 | 9.7 | 0.00 | 0.03 | 0.00 | 75 | 1010.6 |
| 20260509202513 | 28 | 293 | 3.2 | 9.7 | 0.00 | 0.03 | 0.00 | 73 | 1010.7 |
| 20260509202015 | 29 | 329 | 1.6 | 8.0 | 0.00 | 0.03 | 0.00 | 72 | 1010.8 |
| 20260509201530 | 29 | 235 | 1.6 | 8.0 | 0.00 | 0.03 | 0.00 | 71 | 1010.8 |
| 20260509201013 | 29 | 337 | 1.6 | 4.8 | 0.00 | 0.03 | 0.00 | 71 | 1010.8 |
| 20260509200519 | 30 | 273 | 1.6 | 4.8 | 0.00 | 0.03 | 0.00 | 71 | 1010.9 |
| 20260509200030 | 30 | 184 | 0.0 | 8.0 | 0.00 | 0.03 | 0.00 | 69 | 1010.8 |
| 20260509195514 | 31 | 219 | 1.6 | 8.0 | 0.00 | 0.03 | 0.00 | 66 | 1010.8 |
| 20260509195017 | 32 | 205 | 1.6 | 4.8 | 0.00 | 0.03 | 0.00 | 60 | 1010.6 |
| 20260509194532 | 33 | 0 | 0.0 | 1.6 | 0.00 | 0.03 | 0.00 | 58 | 1010.6 |
| 20260509194013 | 33 | 169 | 0.0 | 1.6 | 0.00 | 0.03 | 0.00 | 56 | 1010.4 |
| 20260509193516 | 33 | 261 | 0.0 | 1.6 | 0.00 | 0.03 | 0.00 | 57 | 1010.4 |
| 20260509193036 | 33 | 0 | 0.0 | 3.2 | 0.00 | 0.03 | 0.00 | 58 | 1010.4 |
| 20260509192514 | 33 | 238 | 0.0 | 3.2 | 0.00 | 0.03 | 0.00 | 57 | 1010.6 |
| 20260509192018 | 33 | 0 | 0.0 | 3.2 | 0.00 | 0.03 | 0.00 | 57 | 1010.6 |
| 20260509191533 | 33 | 261 | 0.0 | 3.2 | 0.00 | 0.03 | 0.00 | 55 | 1010.7 |
| 20260509191015 | 33 | 224 | 0.0 | 3.2 | 0.00 | 0.03 | 0.00 | 56 | 1010.7 |
| 20260509190512 | 33 | 0 | 0.0 | 3.2 | 0.00 | 0.03 | 0.00 | 55 | 1010.9 |
| 20260509190035 | 33 | 139 | 0.0 | 4.8 | 0.00 | 0.03 | 0.00 | 55 | 1011.0 |
| 20260509185512 | 33 | 240 | 1.6 | 4.8 | 0.00 | 0.03 | 0.00 | 54 | 1011.0 |
| 20260509185014 | 33 | 227 | 0.0 | 3.2 | 0.00 | 0.03 | 0.00 | 53 | 1011.0 |
| 20260509184540 | 33 | 0 | 0.0 | 4.8 | 0.00 | 0.03 | 0.00 | 55 | 1011.1 |
| 20260509184014 | 33 | 225 | 0.0 | 8.0 | 0.00 | 0.03 | 0.00 | 55 | 1011.0 |
| 20260509183514 | 33 | 221 | 3.2 | 8.0 | 0.00 | 0.03 | 0.00 | 54 | 1011.1 |
| 20260509183035 | 33 | 252 | 1.6 | 4.8 | 0.00 | 0.03 | 0.00 | 52 | 1011.3 |
| 20260509182514 | 34 | 206 | 0.0 | 4.8 | 0.00 | 0.03 | 0.00 | 53 | 1011.3 |
| 20260509182018 | 34 | 0 | 0.0 | 4.8 | 0.00 | 0.03 | 0.00 | 53 | 1011.5 |
| 20260509181531 | 33 | 212 | 1.6 | 4.8 | 0.00 | 0.03 | 0.00 | 54 | 1011.4 |
| 20260509181014 | 33 | 208 | 1.6 | 4.8 | 0.00 | 0.03 | 0.00 | 55 | 1011.6 |
| 20260509180514 | 33 | 212 | 0.0 | 4.8 | 0.00 | 0.03 | 0.00 | 54 | 1011.6 |
| 20260509180031 | 33 | 240 | 1.6 | 4.8 | 0.00 | 0.03 | 0.00 | 55 | 1011.5 |
| 20260509175522 | 33 | 157 | 0.0 | 4.8 | 0.00 | 0.03 | 0.00 | 55 | 1011.5 |
| 20260509175014 | 33 | 219 | 1.6 | 4.8 | 0.00 | 0.03 | 0.00 | 54 | 1011.7 |
| 20260509174532 | 33 | 259 | 1.6 | 6.4 | 0.00 | 0.03 | 0.00 | 56 | 1011.7 |
| 20260509174011 | 33 | 0 | 1.6 | 6.4 | 0.00 | 0.03 | 0.00 | 54 | 1011.7 |
| 20260509173522 | 33 | 196 | 0.0 | 4.8 | 0.00 | 0.03 | 0.00 | 53 | 1011.7 |
| 20260509173032 | 33 | 169 | 0.0 | 4.8 | 0.00 | 0.03 | 0.00 | 54 | 1011.8 |